Weather History for Stanton, MN

Change the Weather History Date:

Monday, November 12, 2012

  Actual Average (KLVN) Record (KLVN)
Temperature  
Mean Temperature 24 °F -  
Max Temperature 28 °F 38 °F 66 °F (2001)
Min Temperature 20 °F 23 °F -4 °F (1966)
Degree Days  
Heating Degree Days 41    
Moisture  
Dew Point 16 °F    
Average Humidity 72    
Maximum Humidity 83    
Minimum Humidity 60    
Precipitation  
Precipitation 0.00 in - - ()
Sea Level Pressure  
Sea Level Pressure 30.08 in    
Wind  
Wind Speed 13 mph (West)    
Max Wind Speed 24 mph    
Max Gust Speed 30 mph    
Visibility 9 miles    
Events Snow    
Averages and records for this station are not official NWS values.
T = Trace of Precipitation, MM = Missing Value Source: NWS Daily Summary

Daily Weather History Graph

Daily Weather History Graph

Search for Another Location

Airport:

Trip Planner

Search our weather history database for the weather conditions in past years. The results will help you decide how hot, cold, wet, or windy it might be!

Date:

Astronomy

Nov. 12, 2012 Rise Set
Actual Time 7:04 AM CST 4:47 PM CST
Civil Twilight 6:33 AM CST 5:18 PM CST
Nautical Twilight 5:58 AM CST 5:53 PM CST
Astronomical Twilight 5:24 AM CST 6:27 PM CST
Moon 5:29 AM CST (11/12) 3:53 PM CST (11/12)
Length of Visible Light 10h 44m
Length of Day
9h 42m
Waning Crescent, 2% of the Moon is Illuminated
Nov 12
Waning Crescent
Nov 13
New
Nov 20
First Quarter
Nov 28
Full
Dec 6
Last Quarter

Hourly Weather History & Observations

Time (CST) Temp. Windchill Dew Point Humidity Pressure Visibility Wind Dir Wind Speed Gust Speed Precip Events Conditions
12:12 AM 23.0 °F 10.6 °F 13.8 °F 68% 29.95 in 10.0 mi West 13.8 mph - N/A Snow Light Snow
12:52 AM 23.4 °F 11.6 °F 14.4 °F 68% 29.95 in 10.0 mi West 12.7 mph 16.1 mph N/A   Overcast
1:12 AM 23.5 °F 11.8 °F 14.7 °F 69% 29.95 in 10.0 mi West 12.7 mph 17.3 mph N/A Snow Light Snow
1:52 AM 23.7 °F 10.1 °F 14.2 °F 67% 29.95 in 10.0 mi WSW 17.3 mph 24.2 mph N/A Snow Light Snow
2:12 AM 23.0 °F 10.1 °F 12.2 °F 63% 29.95 in 10.0 mi West 15.0 mph 26.5 mph N/A   Mostly Cloudy
2:32 AM 22.1 °F 8.9 °F 11.3 °F 63% 29.96 in 10.0 mi WSW 15.0 mph 20.7 mph N/A   Scattered Clouds
2:52 AM 21.6 °F 8.2 °F 11.3 °F 65% 29.96 in 10.0 mi West 15.0 mph 20.7 mph N/A   Scattered Clouds
3:12 AM 21.2 °F 9.5 °F 11.8 °F 67% 29.96 in 10.0 mi WSW 11.5 mph - N/A   Scattered Clouds
3:32 AM 21.0 °F 9.9 °F 11.8 °F 68% 29.96 in 10.0 mi WSW 10.4 mph - N/A   Clear
3:52 AM 20.8 °F 10.4 °F 12.2 °F 69% 29.96 in 10.0 mi WSW 9.2 mph - N/A   Clear
4:12 AM 21.0 °F 9.9 °F 12.6 °F 70% 29.96 in 10.0 mi WSW 10.4 mph - N/A   Scattered Clouds
4:32 AM 21.6 °F 11.3 °F 13.1 °F 70% 29.96 in 10.0 mi WSW 9.2 mph - N/A   Mostly Cloudy
4:52 AM 21.2 °F 9.5 °F 13.1 °F 71% 29.96 in 10.0 mi WSW 11.5 mph 18.4 mph N/A   Scattered Clouds
5:12 AM 21.4 °F 10.4 °F 13.5 °F 72% 29.96 in 10.0 mi WSW 10.4 mph 17.3 mph N/A   Clear
5:32 AM 21.2 °F 9.5 °F 13.8 °F 73% 29.96 in 10.0 mi WSW 11.5 mph - N/A   Clear
5:52 AM 21.2 °F 9.5 °F 14.2 °F 74% 29.96 in 10.0 mi WSW 11.5 mph - N/A   Scattered Clouds
6:52 AM 21.7 °F 11.5 °F 16.2 °F 79% 29.97 in 4.0 mi WSW 9.2 mph - N/A Snow Light Snow
7:12 AM 22.1 °F 11.3 °F 16.7 °F 80% 29.97 in 3.0 mi WSW 10.4 mph - N/A Snow Light Snow
7:32 AM 22.6 °F 11.9 °F 17.6 °F 81% 29.97 in 2.0 mi WSW 10.4 mph 16.1 mph N/A Snow Light Snow
7:52 AM 22.6 °F 10.7 °F 18.1 °F 83% 29.98 in 2.0 mi WSW 12.7 mph - N/A Snow Light Snow
8:12 AM 22.6 °F 11.3 °F 18.1 °F 83% 29.98 in 2.5 mi WSW 11.5 mph 17.3 mph N/A Snow Light Snow
8:32 AM 23.7 °F 14.0 °F 18.5 °F 80% 29.99 in 2.0 mi WSW 9.2 mph - N/A Snow Light Snow
8:52 AM 23.9 °F 11.7 °F 17.6 °F 77% 29.99 in 4.0 mi WSW 13.8 mph - N/A Snow Light Snow
9:12 AM 24.8 °F 14.0 °F 18.1 °F 76% 29.99 in 4.0 mi West 11.5 mph 19.6 mph N/A Snow Light Snow
9:32 AM 25.0 °F 13.1 °F 18.1 °F 75% 30.00 in 4.0 mi West 13.8 mph 20.7 mph N/A Snow Light Snow
9:52 AM 24.3 °F 12.2 °F 18.0 °F 77% 30.01 in 2.5 mi West 13.8 mph - N/A Snow Light Snow
10:12 AM 23.7 °F 11.5 °F 18.9 °F 82% 30.01 in 0.5 mi West 13.8 mph - N/A Snow Light Snow
10:32 AM 24.8 °F 12.9 °F 18.3 °F 76% 30.02 in 10.0 mi West 13.8 mph - N/A   Scattered Clouds
10:52 AM 25.5 °F 11.6 °F 16.5 °F 69% 30.03 in 10.0 mi West 19.6 mph 27.6 mph N/A   Scattered Clouds
11:12 AM 25.5 °F 12.0 °F 16.2 °F 68% 30.03 in 7.0 mi West 18.4 mph 26.5 mph N/A Snow Light Snow
11:32 AM 26.6 °F 13.1 °F 17.1 °F 67% 30.03 in 10.0 mi West 19.6 mph 23.0 mph N/A   Mostly Cloudy
11:53 AM 25.2 °F 11.6 °F 15.6 °F 67% 30.03 in 10.0 mi West 18.4 mph 24.2 mph N/A   Scattered Clouds
12:12 PM 27.0 °F 13.9 °F 16.5 °F 65% 30.03 in 10.0 mi West 18.4 mph 26.5 mph N/A   Mostly Cloudy
12:32 PM 27.9 °F 14.7 °F 16.5 °F 62% 30.03 in 10.0 mi West 19.6 mph 26.5 mph N/A   Mostly Cloudy
12:52 PM 28.4 °F 16.2 °F 16.5 °F 61% 30.04 in 10.0 mi West 17.3 mph 25.3 mph N/A   Mostly Cloudy
1:12 PM 28.0 °F 15.3 °F 15.6 °F 60% 30.05 in 10.0 mi West 18.4 mph 26.5 mph N/A   Mostly Cloudy
1:32 PM 28.2 °F 13.9 °F 16.2 °F 61% 30.06 in 10.0 mi WNW 24.2 mph 29.9 mph N/A   Mostly Cloudy
1:52 PM 26.6 °F 12.4 °F 16.0 °F 64% 30.06 in 10.0 mi West 21.9 mph 26.5 mph N/A   Mostly Cloudy
2:12 PM 26.1 °F 12.3 °F 16.3 °F 67% 30.07 in 10.0 mi West 19.6 mph 26.5 mph N/A Snow Light Snow
2:52 PM 26.4 °F 14.5 °F 16.7 °F 67% 30.09 in 10.0 mi West 15.0 mph 23.0 mph N/A   Mostly Cloudy
3:12 PM 26.6 °F 13.8 °F 16.9 °F 67% 30.10 in 10.0 mi West 17.3 mph 24.2 mph N/A   Mostly Cloudy
3:33 PM 26.2 °F 13.4 °F 16.5 °F 67% 30.11 in 10.0 mi West 17.3 mph 25.3 mph N/A   Mostly Cloudy
3:52 PM 26.4 °F 13.2 °F 16.3 °F 66% 30.13 in 10.0 mi West 18.4 mph 26.5 mph N/A   Mostly Cloudy
4:12 PM 26.4 °F 14.5 °F 16.9 °F 67% 30.13 in 10.0 mi West 15.0 mph 20.7 mph N/A   Overcast
4:33 PM 26.4 °F 16.0 °F 16.7 °F 67% 30.14 in 10.0 mi West 11.5 mph 24.2 mph N/A   Overcast
4:52 PM 26.1 °F 14.0 °F 16.3 °F 67% 30.15 in 10.0 mi West 15.0 mph 18.4 mph N/A   Mostly Cloudy
5:12 PM 26.1 °F 14.5 °F 16.7 °F 68% 30.16 in 10.0 mi West 13.8 mph 18.4 mph N/A   Mostly Cloudy
5:33 PM 26.1 °F 13.1 °F 16.7 °F 68% 30.17 in 10.0 mi West 17.3 mph 23.0 mph N/A   Overcast
5:52 PM 25.2 °F 13.9 °F 16.3 °F 69% 30.18 in 10.0 mi West 12.7 mph 17.3 mph N/A   Mostly Cloudy
6:12 PM 24.4 °F 14.2 °F 16.5 °F 72% 30.18 in 10.0 mi West 10.4 mph - N/A   Clear
6:52 PM 23.7 °F 14.0 °F 16.5 °F 74% 30.19 in 10.0 mi West 9.2 mph - N/A   Clear
7:12 PM 23.4 °F 14.3 °F 16.5 °F 75% 30.20 in 10.0 mi West 8.1 mph - N/A   Clear
7:32 PM 23.0 °F 14.7 °F 16.3 °F 76% 30.21 in 10.0 mi West 6.9 mph - N/A   Clear
7:52 PM 23.0 °F 15.8 °F 16.3 °F 76% 30.22 in 10.0 mi WSW 5.8 mph - N/A   Clear
8:12 PM 22.6 °F 14.3 °F 16.3 °F 77% 30.23 in 10.0 mi WSW 6.9 mph - N/A   Clear
8:32 PM 22.6 °F 16.5 °F 16.7 °F 78% 30.23 in 10.0 mi WSW 4.6 mph - N/A   Clear
8:52 PM 21.7 °F 14.3 °F 16.3 °F 80% 30.23 in 10.0 mi SW 5.8 mph - N/A   Clear
9:12 PM 22.3 °F 13.9 °F 16.5 °F 79% 30.24 in 10.0 mi WSW 6.9 mph - N/A   Clear
9:32 PM 22.6 °F 15.3 °F 16.5 °F 77% 30.24 in 10.0 mi WSW 5.8 mph - N/A   Clear
9:52 PM 23.0 °F 14.7 °F 16.5 °F 76% 30.25 in 10.0 mi WSW 6.9 mph - N/A   Clear
10:12 PM 23.0 °F 14.7 °F 16.7 °F 77% 30.26 in 10.0 mi WSW 6.9 mph - N/A   Clear
10:32 PM 22.8 °F 16.7 °F 16.5 °F 77% 30.26 in 10.0 mi WSW 4.6 mph - N/A   Clear
10:52 PM 22.5 °F 15.1 °F 16.3 °F 77% 30.27 in 10.0 mi WSW 5.8 mph - N/A   Clear
11:12 PM 22.1 °F 14.7 °F 16.3 °F 79% 30.28 in 10.0 mi WSW 5.8 mph - N/A   Clear
11:32 PM 21.7 °F 17.0 °F 16.2 °F 79% 30.28 in 10.0 mi WSW 3.5 mph - N/A   Clear
11:52 PM 21.2 °F 14.9 °F 16.3 °F 82% 30.28 in 10.0 mi SW 4.6 mph - N/A   Clear